Вернуться в каталог

YAHSAT 1B

АктивенСвязьGEO
NORAD 38245·PAYLOAD·🇦🇪 UAE

Запущен Apr 23, 2012 с Baikonur Cosmodrome

Loading…

TLE

СвежийSource: Space-Track

Эпоха: Sep 14, 2026, 14:01 UTC

1 38245U 12016A   26257.58454772  .00000119  00000-0  00000-0 0  9997
2 38245   0.0996  89.0265 0000980  75.7249  86.8630  1.00271455 46500

Отслеживайте YAHSAT 1B в реальном времени с AllMySat

Download on the App Store